Погода в Крапивна

Россия / Смоленская область     54°11′52″N   33°34′22″E
темп.,
°C
ветер,
м/с
пор.,
м/с
влажн.,
%
обл.,
%
осадки,
мм/ч
давл.,
гПа
погр.,
м
15 мая, сб
сб1500:00+12вюв259823 0.0 100792
03:00+11ююв25974 0.0 1007103
06:00+11ююз269649 0.0 1007136
09:00+15ююз358584 0.3 1007462
12:00+18ююз466810 1.3 10071300
15:00+18ююз456928 3.7 10071245
18:00+17ююз47815 1.9 1007770
21:00+12юз389657 3.2 1008204
16 мая, вс
вс1600:00+11ю399748 0.0 1009222
03:00+10ю389831 0.0 1010187
06:00+11ю399780 0.0 1011271
09:00+15ююз478444 0.0 1011617
12:00+17юз4570100 0.1 10121055
15:00+20юз355689 0.2 10121700
18:00+19ю34712 0.6 1012568
21:00+14ю2291100 0.6 101312
17 мая, пн
пн1700:00+13вюв2293100 0.0 101313
03:00+11вюв249581 0.0 101363
06:00+12вюв279484 0.0 1012159
09:00+18в487095 0.0 1011448
12:00+23в58586 0.0 10091150
15:00+26вюв6115186 0.0 10061748
18:00+23вюв612589 0.0 10041552
21:00+19вюв51373100 0.0 1004572
18 мая, вт
вт1800:00+17юв41389100 0.0 1003434
03:00+16вюв41293100 0.0 1002398
06:00+16юв41296100 0.1 1002442
09:00+17ююв61187100 0.2 10021043
12:00+18ю61181100 0.6 10031008
15:00+18ююз4670100 1.3 10041225
18:00+16ю378691 0.9 1004449
21:00+13ююв229497 1.6 100523
19 мая, ср
ср1900:00+12ююв269698 0.0 1004117
03:00+13ю2397100 0.6 1003105
06:00+13юз2499100 2.9 1003295
09:00+12з4895100 5.0 1004540
12:00+15з5779100 0.5 1006960
15:00+17з685773 0.6 10061618
18:00+14зсз4868100 0.0 10081225
21:00+10зюз2387100 0.1 101042